| time (UTC) | temp F | wind direction | speed MPH | gust MPH | rain 1hr in | rain 24hr in | rain mn in | humidity % | barometer mb |
| 20260904014225 | 82 | 177 | 0.0 | 2.0 | 0.00 | 0.10 | 0.10 | 75 | 1009.1 |
| 20260904013721 | 82 | 199 | 1.0 | 1.0 | 0.00 | 0.10 | 0.10 | 75 | 1009.0 |
| 20260904013217 | 82 | 201 | 0.0 | 1.0 | 0.00 | 0.10 | 0.10 | 74 | 1008.9 |
| 20260904012712 | 82 | 201 | 1.0 | 1.0 | 0.00 | 0.10 | 0.10 | 74 | 1009.1 |
| 20260904012211 | 82 | 189 | 2.0 | 6.0 | 0.00 | 0.10 | 0.10 | 73 | 1008.9 |
| 20260904011711 | 82 | 210 | 1.0 | 3.0 | 0.00 | 0.10 | 0.10 | 73 | 1008.8 |
| 20260904011207 | 82 | 163 | 2.0 | 6.0 | 0.00 | 0.10 | 0.10 | 73 | 1008.6 |
| 20260904010701 | 83 | 193 | 1.0 | 2.0 | 0.00 | 0.10 | 0.10 | 73 | 1008.7 |
| 20260904010158 | 83 | 123 | 3.0 | 6.0 | 0.00 | 0.10 | 0.10 | 72 | 1008.8 |
| 20260904005653 | 83 | 167 | 1.0 | 3.0 | 0.00 | 0.10 | 0.10 | 72 | 1008.7 |
| 20260904005149 | 83 | 193 | 0.0 | 2.0 | 0.00 | 0.10 | 0.10 | 72 | 1008.7 |
| 20260904004643 | 83 | 171 | 1.0 | 2.0 | 0.00 | 0.10 | 0.10 | 71 | 1008.7 |
| 20260904004138 | 84 | 170 | 2.0 | 2.0 | 0.00 | 0.10 | 0.10 | 71 | 1008.7 |
| 20260904003634 | 84 | 165 | 1.0 | 2.0 | 0.00 | 0.10 | 0.10 | 71 | 1008.7 |
| 20260904003130 | 84 | 193 | 1.0 | 3.0 | 0.00 | 0.10 | 0.10 | 70 | 1008.8 |
| 20260904002625 | 84 | 177 | 2.0 | 5.0 | 0.00 | 0.10 | 0.10 | 70 | 1008.7 |
| 20260904002120 | 84 | 160 | 1.0 | 2.0 | 0.00 | 0.10 | 0.10 | 69 | 1008.8 |
| 20260904001615 | 85 | 185 | 1.0 | 2.0 | 0.00 | 0.10 | 0.10 | 69 | 1008.6 |
| 20260904001114 | 85 | 189 | 1.0 | 2.0 | 0.00 | 0.10 | 0.10 | 68 | 1008.7 |
| 20260904000609 | 85 | 191 | 1.0 | 2.0 | 0.00 | 0.10 | 0.10 | 68 | 1008.8 |
| 20260904000105 | 85 | 191 | 0.0 | 2.0 | 0.00 | 0.10 | 0.10 | 68 | 1008.8 |
| 20260903235604 | 85 | 196 | 1.0 | 3.0 | 0.00 | 0.10 | 0.10 | 67 | 1008.8 |
| 20260903235101 | 86 | 188 | 4.0 | 7.0 | 0.00 | 0.10 | 0.10 | 66 | 1008.7 |
| 20260903234555 | 86 | 177 | 2.0 | 5.0 | 0.00 | 0.10 | 0.10 | 66 | 1008.8 |
| 20260903234051 | 86 | 218 | 4.0 | 6.0 | 0.00 | 0.10 | 0.10 | 65 | 1008.9 |
| 20260903233547 | 86 | 223 | 3.0 | 6.0 | 0.00 | 0.10 | 0.10 | 65 | 1008.7 |
| 20260903233043 | 86 | 165 | 1.0 | 3.0 | 0.00 | 0.10 | 0.10 | 65 | 1008.6 |
| 20260903232538 | 86 | 151 | 2.0 | 9.0 | 0.00 | 0.10 | 0.10 | 64 | 1008.6 |
| 20260903232033 | 87 | 193 | 3.0 | 7.0 | 0.00 | 0.10 | 0.10 | 63 | 1008.6 |
| 20260903231527 | 87 | 223 | 3.0 | 5.0 | 0.00 | 0.10 | 0.10 | 64 | 1008.5 |
| 20260903231021 | 87 | 226 | 1.0 | 3.0 | 0.00 | 0.10 | 0.10 | 63 | 1008.2 |
| 20260903230518 | 87 | 209 | 5.0 | 7.0 | 0.00 | 0.10 | 0.10 | 63 | 1008.3 |
| 20260903230015 | 87 | 137 | 5.0 | 6.0 | 0.00 | 0.10 | 0.10 | 62 | 1008.1 |
| 20260903225509 | 87 | 239 | 2.0 | 7.0 | 0.00 | 0.10 | 0.10 | 62 | 1007.9 |
| 20260903225005 | 87 | 162 | 2.0 | 7.0 | 0.00 | 0.10 | 0.10 | 61 | 1007.9 |
| 20260903224500 | 88 | 203 | 2.0 | 7.0 | 0.00 | 0.10 | 0.10 | 60 | 1008.0 |
| 20260903223956 | 88 | 162 | 2.0 | 6.0 | 0.00 | 0.10 | 0.10 | 60 | 1008.0 |
| 20260903223455 | 88 | 165 | 1.0 | 7.0 | 0.00 | 0.10 | 0.10 | 59 | 1007.9 |
| 20260903222955 | 88 | 144 | 4.0 | 6.0 | 0.00 | 0.10 | 0.10 | 59 | 1008.0 |
| 20260903222455 | 88 | 147 | 6.0 | 10.0 | 0.00 | 0.10 | 0.10 | 59 | 1008.2 |
| 20260903221954 | 88 | 139 | 3.0 | 7.0 | 0.00 | 0.10 | 0.10 | 59 | 1008.1 |
| 20260903221449 | 88 | 164 | 4.0 | 10.0 | 0.00 | 0.10 | 0.10 | 59 | 1008.3 |
| 20260903220946 | 88 | 174 | 2.0 | 6.0 | 0.00 | 0.10 | 0.10 | 60 | 1008.2 |
| 20260903220442 | 87 | 195 | 3.0 | 6.0 | 0.00 | 0.10 | 0.10 | 61 | 1008.1 |
| 20260903215939 | 88 | 219 | 4.0 | 8.0 | 0.00 | 0.10 | 0.10 | 60 | 1008.3 |
| 20260903215436 | 89 | 126 | 4.0 | 8.0 | 0.00 | 0.10 | 0.10 | 59 | 1008.5 |
| 20260903214934 | 89 | 162 | 2.0 | 7.0 | 0.00 | 0.10 | 0.10 | 59 | 1008.2 |
| 20260903214430 | 89 | 207 | 1.0 | 7.0 | 0.00 | 0.10 | 0.10 | 60 | 1008.1 |
| 20260903213929 | 88 | 145 | 3.0 | 5.0 | 0.00 | 0.10 | 0.10 | 59 | 1008.4 |
| 20260903213425 | 87 | 183 | 3.0 | 6.0 | 0.00 | 0.10 | 0.10 | 60 | 1008.6 |
| 20260903212921 | 88 | 168 | 1.0 | 6.0 | 0.00 | 0.10 | 0.10 | 60 | 1008.5 |
| 20260903212417 | 88 | 205 | 5.0 | 8.0 | 0.00 | 0.10 | 0.10 | 59 | 1008.7 |
| 20260903211916 | 89 | 183 | 4.0 | 7.0 | 0.00 | 0.10 | 0.10 | 59 | 1008.6 |
| 20260903211412 | 87 | 208 | 2.0 | 6.0 | 0.00 | 0.10 | 0.10 | 60 | 1008.6 |
| 20260903210908 | 87 | 166 | 3.0 | 7.0 | 0.00 | 0.10 | 0.10 | 61 | 1008.5 |
| 20260903210408 | 87 | 208 | 3.0 | 5.0 | 0.00 | 0.10 | 0.10 | 61 | 1008.3 |
| 20260903205903 | 86 | 201 | 4.0 | 6.0 | 0.00 | 0.10 | 0.10 | 63 | 1008.8 |
| 20260903205403 | 85 | 138 | 1.0 | 2.0 | 0.00 | 0.10 | 0.10 | 62 | 1009.0 |
| 20260903204857 | 86 | 221 | 1.0 | 5.0 | 0.00 | 0.10 | 0.10 | 62 | 1009.2 |
| 20260903204353 | 86 | 186 | 3.0 | 5.0 | 0.00 | 0.10 | 0.10 | 61 | 1009.1 |
| 20260903203849 | 86 | 152 | 1.0 | 5.0 | 0.00 | 0.10 | 0.10 | 61 | 1009.1 |
| 20260903203345 | 86 | 233 | 3.0 | 3.0 | 0.00 | 0.10 | 0.10 | 60 | 1009.1 |
| 20260903202843 | 86 | 204 | 5.0 | 9.0 | 0.00 | 0.10 | 0.10 | 59 | 1009.2 |
| 20260903202340 | 87 | 192 | 3.0 | 7.0 | 0.00 | 0.10 | 0.10 | 59 | 1009.2 |
| 20260903201840 | 87 | 140 | 3.0 | 6.0 | 0.00 | 0.10 | 0.10 | 58 | 1008.8 |
| 20260903201335 | 87 | 147 | 3.0 | 5.0 | 0.00 | 0.10 | 0.10 | 59 | 1008.8 |
| 20260903200833 | 88 | 203 | 2.0 | 8.0 | 0.00 | 0.10 | 0.10 | 58 | 1008.8 |
| 20260903200329 | 87 | 118 | 3.0 | 11.0 | 0.00 | 0.10 | 0.10 | 59 | 1009.1 |
| 20260903195824 | 88 | 202 | 4.0 | 9.0 | 0.00 | 0.10 | 0.10 | 57 | 1009.1 |
| 20260903195321 | 87 | 113 | 5.0 | 9.0 | 0.00 | 0.10 | 0.10 | 59 | 1008.9 |
| 20260903194815 | 87 | 193 | 4.0 | 9.0 | 0.00 | 0.10 | 0.10 | 61 | 1009.3 |
| 20260903194311 | 88 | 196 | 2.0 | 6.0 | 0.00 | 0.10 | 0.10 | 60 | 1009.7 |
| 20260903193806 | 88 | 145 | 2.0 | 6.0 | 0.00 | 0.10 | 0.10 | 60 | 1009.8 |
| 20260903193302 | 87 | 196 | 5.0 | 8.0 | 0.00 | 0.10 | 0.10 | 63 | 1009.5 |
| 20260903192757 | 86 | 164 | 3.0 | 5.0 | 0.00 | 0.10 | 0.10 | 71 | 1009.5 |
| 20260903192253 | 85 | 115 | 2.0 | 6.0 | 0.00 | 0.10 | 0.10 | 72 | 1009.3 |
| 20260903191749 | 85 | 118 | 2.0 | 3.0 | 0.00 | 0.10 | 0.10 | 74 | 1009.2 |
| 20260903191244 | 83 | 186 | 1.0 | 2.0 | 0.00 | 0.10 | 0.10 | 77 | 1009.5 |
| 20260903190739 | 82 | 151 | 2.0 | 5.0 | 0.00 | 0.10 | 0.10 | 78 | 1009.2 |
| 20260903190238 | 82 | 141 | 2.0 | 3.0 | 0.00 | 0.10 | 0.10 | 79 | 1009.7 |
| 20260903185734 | 81 | 141 | 3.0 | 3.0 | 0.00 | 0.10 | 0.10 | 81 | 1010.1 |
| 20260903185228 | 80 | 187 | 0.0 | 1.0 | 0.00 | 0.10 | 0.10 | 85 | 1010.2 |
| 20260903184725 | 79 | 142 | 1.0 | 2.0 | 0.00 | 0.10 | 0.10 | 88 | 1010.0 |
| 20260903184221 | 78 | 187 | 0.0 | 0.0 | 0.00 | 0.10 | 0.10 | 91 | 1010.0 |
| 20260903183721 | 77 | 192 | 0.0 | 0.0 | 0.00 | 0.10 | 0.10 | 91 | 1009.9 |
| 20260903183215 | 76 | 193 | 0.0 | 0.0 | 0.00 | 0.10 | 0.10 | 90 | 1010.0 |
| 20260903182713 | 77 | 188 | 0.0 | 0.0 | 0.05 | 0.10 | 0.10 | 91 | 1010.1 |
| 20260903182209 | 76 | 188 | 0.0 | 0.0 | 0.17 | 0.10 | 0.10 | 90 | 1010.3 |
| 20260903181707 | 75 | 200 | 0.0 | 1.0 | 0.31 | 0.09 | 0.09 | 89 | 1010.3 |
| 20260903181202 | 76 | 95 | 1.0 | 1.0 | 0.35 | 0.06 | 0.06 | 87 | 1010.1 |
| 20260903180658 | 77 | 197 | 0.0 | 2.0 | 0.24 | 0.04 | 0.04 | 83 | 1009.8 |
| 20260903180152 | 78 | 152 | 3.0 | 5.0 | 0.00 | 0.00 | 0.00 | 80 | 1010.1 |
| 20260903175651 | 78 | 176 | 1.0 | 2.0 | 0.00 | 0.00 | 0.00 | 79 | 1010.3 |
| 20260903175151 | 79 | 222 | 0.0 | 2.0 | 0.00 | 0.00 | 0.00 | 77 | 1010.3 |
| 20260903174645 | 79 | 12 | 2.0 | 3.0 | 0.00 | 0.00 | 0.00 | 76 | 1010.1 |
| 20260903174141 | 80 | 148 | 2.0 | 2.0 | 0.00 | 0.00 | 0.00 | 76 | 1009.8 |
| 20260903173635 | 80 | 166 | 2.0 | 2.0 | 0.00 | 0.00 | 0.00 | 75 | 1010.0 |
| 20260903173132 | 80 | 179 | 1.0 | 3.0 | 0.00 | 0.00 | 0.00 | 74 | 1010.1 |
| 20260903172631 | 80 | 132 | 2.0 | 6.0 | 0.00 | 0.00 | 0.00 | 74 | 1010.1 |
| 20260903172127 | 81 | 159 | 1.0 | 5.0 | 0.00 | 0.00 | 0.00 | 72 | 1010.3 |
| 20260903171626 | 81 | 239 | 3.0 | 5.0 | 0.00 | 0.00 | 0.00 | 73 | 1010.4 |
| 20260903171123 | 79 | 204 | 3.0 | 5.0 | 0.00 | 0.00 | 0.00 | 76 | 1010.7 |
| 20260903170621 | 77 | 158 | 3.0 | 3.0 | 0.00 | 0.00 | 0.00 | 80 | 1010.6 |
| 20260903170117 | 77 | 160 | 2.0 | 3.0 | 0.00 | 0.00 | 0.00 | 80 | 1010.9 |
| 20260903165614 | 77 | 125 | 2.0 | 2.0 | 0.00 | 0.00 | 0.00 | 80 | 1010.7 |
| 20260903165110 | 77 | 151 | 1.0 | 2.0 | 0.00 | 0.00 | 0.00 | 80 | 1010.8 |
| 20260903164604 | 77 | 169 | 0.0 | 2.0 | 0.00 | 0.00 | 0.00 | 79 | 1010.8 |
| 20260903164101 | 77 | 165 | 1.0 | 2.0 | 0.00 | 0.00 | 0.00 | 79 | 1011.0 |
| 20260903163555 | 77 | 151 | 2.0 | 3.0 | 0.00 | 0.00 | 0.00 | 78 | 1010.9 |
| 20260903163051 | 78 | 162 | 1.0 | 2.0 | 0.00 | 0.00 | 0.00 | 78 | 1010.6 |
| 20260903162547 | 78 | 176 | 3.0 | 5.0 | 0.00 | 0.00 | 0.00 | 77 | 1010.9 |
| 20260903162042 | 79 | 85 | 4.0 | 6.0 | 0.00 | 0.00 | 0.00 | 74 | 1010.9 |
| 20260903161538 | 78 | 146 | 2.0 | 6.0 | 0.00 | 0.00 | 0.00 | 76 | 1010.7 |
| 20260903161028 | 78 | 153 | 1.0 | 6.0 | 0.00 | 0.00 | 0.00 | 76 | 1010.8 |
| 20260903160527 | 78 | 163 | 1.0 | 3.0 | 0.00 | 0.00 | 0.00 | 75 | 1010.7 |
| 20260903160021 | 78 | 169 | 1.0 | 3.0 | 0.00 | 0.00 | 0.00 | 75 | 1010.8 |
| 20260903155520 | 79 | 186 | 0.0 | 3.0 | 0.00 | 0.00 | 0.00 | 74 | 1010.8 |
| 20260903155016 | 78 | 148 | 1.0 | 3.0 | 0.00 | 0.00 | 0.00 | 74 | 1010.6 |
| 20260903154512 | 78 | 171 | 0.0 | 3.0 | 0.00 | 0.00 | 0.00 | 74 | 1010.7 |
| 20260903154008 | 78 | 178 | 0.0 | 2.0 | 0.00 | 0.00 | 0.00 | 74 | 1010.7 |
| 20260903153503 | 79 | 172 | 3.0 | 5.0 | 0.00 | 0.00 | 0.00 | 73 | 1010.7 |
| 20260903152959 | 77 | 195 | 2.0 | 5.0 | 0.00 | 0.00 | 0.00 | 74 | 1010.7 |
| 20260903152454 | 77 | 126 | 3.0 | 5.0 | 0.00 | 0.00 | 0.00 | 74 | 1010.7 |
| 20260903151950 | 77 | 172 | 1.0 | 2.0 | 0.00 | 0.00 | 0.00 | 74 | 1010.9 |
| 20260903151445 | 77 | 155 | 0.0 | 3.0 | 0.00 | 0.00 | 0.00 | 74 | 1011.0 |
| 20260903150940 | 78 | 165 | 3.0 | 6.0 | 0.00 | 0.00 | 0.00 | 73 | 1010.9 |
| 20260903150439 | 78 | 169 | 3.0 | 3.0 | 0.00 | 0.00 | 0.00 | 74 | 1010.9 |
| 20260903145934 | 78 | 164 | 3.0 | 6.0 | 0.00 | 0.00 | 0.00 | 73 | 1010.7 |
| 20260903145430 | 79 | 175 | 0.0 | 3.0 | 0.00 | 0.00 | 0.00 | 72 | 1010.6 |
| 20260903144924 | 80 | 159 | 1.0 | 2.0 | 0.00 | 0.00 | 0.00 | 70 | 1010.7 |
| 20260903144424 | 79 | 113 | 5.0 | 6.0 | 0.00 | 0.00 | 0.00 | 71 | 1010.5 |
| 20260903143920 | 79 | 100 | 1.0 | 5.0 | 0.00 | 0.00 | 0.00 | 72 | 1010.7 |
| 20260903143416 | 79 | 158 | 2.0 | 5.0 | 0.00 | 0.00 | 0.00 | 72 | 1010.5 |
| 20260903142911 | 79 | 107 | 3.0 | 3.0 | 0.00 | 0.00 | 0.00 | 72 | 1010.5 |
| 20260903142401 | 78 | 176 | 0.0 | 3.0 | 0.00 | 0.00 | 0.00 | 74 | 1010.6 |
| 20260903141857 | 78 | 187 | 1.0 | 2.0 | 0.00 | 0.00 | 0.00 | 73 | 1010.7 |
| 20260903141353 | 79 | 136 | 2.0 | 2.0 | 0.00 | 0.00 | 0.00 | 72 | 1010.6 |
| 20260903140848 | 78 | 193 | 1.0 | 3.0 | 0.00 | 0.00 | 0.00 | 72 | 1010.7 |
| 20260903140343 | 79 | 160 | 1.0 | 1.0 | 0.00 | 0.00 | 0.00 | 72 | 1010.8 |
| 20260903135839 | 78 | 184 | 0.0 | 2.0 | 0.00 | 0.00 | 0.00 | 73 | 1010.7 |
| 20260903135334 | 78 | 92 | 3.0 | 3.0 | 0.00 | 0.00 | 0.00 | 75 | 1011.0 |
| 20260903134833 | 78 | 157 | 0.0 | 1.0 | 0.00 | 0.00 | 0.00 | 75 | 1010.7 |
| 20260903134328 | 77 | 158 | 1.0 | 1.0 | 0.00 | 0.00 | 0.00 | 75 | 1011.0 |
| 20260903133825 | 76 | 209 | 2.0 | 2.0 | 0.00 | 0.00 | 0.00 | 76 | 1010.9 |
| 20260903133322 | 76 | 148 | 3.0 | 5.0 | 0.00 | 0.00 | 0.00 | 76 | 1011.0 |
| 20260903132816 | 76 | 176 | 2.0 | 2.0 | 0.00 | 0.00 | 0.00 | 77 | 1010.9 |
| 20260903132312 | 76 | 164 | 1.0 | 3.0 | 0.00 | 0.00 | 0.00 | 77 | 1010.9 |
| 20260903131807 | 76 | 174 | 1.0 | 3.0 | 0.00 | 0.00 | 0.00 | 77 | 1010.9 |
| 20260903131306 | 75 | 182 | 2.0 | 3.0 | 0.00 | 0.00 | 0.00 | 78 | 1010.8 |
| 20260903130801 | 75 | 156 | 3.0 | 5.0 | 0.00 | 0.00 | 0.00 | 79 | 1010.7 |
| 20260903130256 | 75 | 171 | 1.0 | 2.0 | 0.00 | 0.00 | 0.00 | 79 | 1010.8 |
| 20260903125754 | 75 | 180 | 1.0 | 1.0 | 0.00 | 0.00 | 0.00 | 79 | 1010.7 |
| 20260903125250 | 75 | 190 | 1.0 | 2.0 | 0.00 | 0.00 | 0.00 | 79 | 1010.5 |
| 20260903124749 | 75 | 200 | 2.0 | 6.0 | 0.00 | 0.00 | 0.00 | 79 | 1010.6 |
| 20260903124245 | 75 | 177 | 0.0 | 5.0 | 0.00 | 0.00 | 0.00 | 79 | 1010.7 |
| 20260903123743 | 75 | 141 | 1.0 | 1.0 | 0.00 | 0.00 | 0.00 | 80 | 1010.3 |
| 20260903123243 | 75 | 174 | 0.0 | 1.0 | 0.00 | 0.00 | 0.00 | 80 | 1010.1 |
| 20260903122741 | 75 | 159 | 1.0 | 2.0 | 0.00 | 0.00 | 0.00 | 80 | 1010.2 |
| 20260903122236 | 75 | 173 | 1.0 | 1.0 | 0.00 | 0.00 | 0.00 | 82 | 1010.0 |
| 20260903121734 | 75 | 149 | 2.0 | 2.0 | 0.00 | 0.00 | 0.00 | 83 | 1010.0 |
| 20260903121231 | 75 | 140 | 2.0 | 3.0 | 0.00 | 0.00 | 0.00 | 83 | 1010.0 |
| 20260903120730 | 75 | 198 | 0.0 | 2.0 | 0.00 | 0.00 | 0.00 | 83 | 1010.2 |
| 20260903120224 | 74 | 221 | 1.0 | 2.0 | 0.00 | 0.00 | 0.00 | 84 | 1010.2 |
| 20260903115723 | 74 | 187 | 1.0 | 2.0 | 0.00 | 0.00 | 0.00 | 85 | 1010.3 |
| 20260903115218 | 74 | 169 | 2.0 | 5.0 | 0.00 | 0.00 | 0.00 | 87 | 1010.5 |
| 20260903114713 | 74 | 205 | 1.0 | 2.0 | 0.00 | 0.00 | 0.00 | 87 | 1010.9 |
| 20260903114209 | 75 | 208 | 1.0 | 2.0 | 0.00 | 0.00 | 0.00 | 87 | 1010.8 |
| 20260903113703 | 74 | 272 | 3.0 | 5.0 | 0.00 | 0.00 | 0.00 | 87 | 1011.1 |
| 20260903113200 | 74 | 189 | 3.0 | 6.0 | 0.00 | 0.00 | 0.00 | 89 | 1011.0 |
| 20260903112655 | 74 | 206 | 0.0 | 0.0 | 0.00 | 0.00 | 0.00 | 90 | 1010.8 |
| 20260903112150 | 73 | 198 | 0.0 | 0.0 | 0.00 | 0.00 | 0.00 | 89 | 1010.9 |
| 20260903111649 | 73 | 202 | 0.0 | 0.0 | 0.00 | 0.00 | 0.00 | 89 | 1010.9 |
| 20260903111145 | 74 | 202 | 0.0 | 0.0 | 0.00 | 0.00 | 0.00 | 89 | 1010.9 |
| 20260903110641 | 74 | 194 | 0.0 | 0.0 | 0.00 | 0.00 | 0.00 | 88 | 1010.6 |
| 20260903110137 | 74 | 195 | 0.0 | 0.0 | 0.00 | 0.00 | 0.00 | 88 | 1010.5 |
| 20260903105631 | 74 | 179 | 0.0 | 0.0 | 0.00 | 0.00 | 0.00 | 88 | 1010.6 |
| 20260903105126 | 73 | 188 | 0.0 | 0.0 | 0.00 | 0.00 | 0.00 | 89 | 1010.9 |
| 20260903104625 | 73 | 187 | 0.0 | 0.0 | 0.00 | 0.00 | 0.00 | 89 | 1010.7 |
| 20260903104121 | 73 | 194 | 0.0 | 2.0 | 0.00 | 0.00 | 0.00 | 90 | 1010.8 |
| 20260903103616 | 73 | 155 | 1.0 | 1.0 | 0.00 | 0.00 | 0.00 | 90 | 1011.1 |
| 20260903103113 | 73 | 200 | 1.0 | 1.0 | 0.00 | 0.00 | 0.00 | 90 | 1011.2 |
| 20260903102608 | 73 | 194 | 0.0 | 0.0 | 0.00 | 0.00 | 0.00 | 90 | 1010.4 |
| 20260903102107 | 73 | 186 | 0.0 | 0.0 | 0.00 | 0.00 | 0.00 | 90 | 1010.5 |
| 20260903101601 | 73 | 190 | 0.0 | 0.0 | 0.00 | 0.00 | 0.00 | 90 | 1010.6 |
| 20260903101057 | 73 | 191 | 0.0 | 1.0 | 0.00 | 0.00 | 0.00 | 90 | 1010.6 |
| 20260903100557 | 72 | 162 | 1.0 | 2.0 | 0.00 | 0.00 | 0.00 | 91 | 1010.3 |
| 20260903100056 | 72 | 176 | 0.0 | 0.0 | 0.00 | 0.00 | 0.00 | 91 | 1010.8 |
| 20260903095554 | 72 | 185 | 0.0 | 0.0 | 0.00 | 0.00 | 0.00 | 91 | 1010.7 |
| 20260903095049 | 72 | 199 | 1.0 | 1.0 | 0.00 | 0.00 | 0.00 | 92 | 1010.8 |
| 20260903094549 | 72 | 186 | 0.0 | 0.0 | 0.00 | 0.00 | 0.00 | 91 | 1010.7 |
| 20260903094044 | 72 | 171 | 0.0 | 0.0 | 0.00 | 0.00 | 0.00 | 91 | 1010.6 |
| 20260903093539 | 72 | 169 | 1.0 | 2.0 | 0.00 | 0.00 | 0.00 | 91 | 1010.5 |
| 20260903093035 | 72 | 170 | 0.0 | 0.0 | 0.00 | 0.00 | 0.00 | 91 | 1010.6 |
| 20260903092534 | 72 | 170 | 0.0 | 0.0 | 0.00 | 0.00 | 0.00 | 91 | 1010.6 |
| 20260903092029 | 72 | 170 | 0.0 | 0.0 | 0.00 | 0.00 | 0.00 | 91 | 1010.6 |
| 20260903091526 | 72 | 171 | 0.0 | 0.0 | 0.00 | 0.00 | 0.00 | 91 | 1010.5 |
| 20260903091021 | 72 | 171 | 0.0 | 0.0 | 0.00 | 0.00 | 0.00 | 91 | 1010.3 |
| 20260903090518 | 72 | 170 | 0.0 | 0.0 | 0.00 | 0.00 | 0.00 | 91 | 1010.2 |
| 20260903090016 | 72 | 171 | 0.0 | 0.0 | 0.00 | 0.00 | 0.00 | 91 | 1010.2 |
| 20260903085514 | 72 | 171 | 0.0 | 0.0 | 0.00 | 0.00 | 0.00 | 91 | 1010.3 |
| 20260903085010 | 72 | 170 | 0.0 | 0.0 | 0.00 | 0.00 | 0.00 | 91 | 1010.3 |
| 20260903084508 | 72 | 170 | 0.0 | 0.0 | 0.00 | 0.00 | 0.00 | 90 | 1010.2 |
| 20260903084004 | 72 | 170 | 0.0 | 0.0 | 0.00 | 0.00 | 0.00 | 90 | 1010.4 |
| 20260903083459 | 72 | 170 | 0.0 | 0.0 | 0.00 | 0.00 | 0.00 | 90 | 1010.4 |
| 20260903082959 | 72 | 171 | 0.0 | 0.0 | 0.00 | 0.00 | 0.00 | 90 | 1010.4 |
| 20260903082453 | 73 | 171 | 0.0 | 0.0 | 0.00 | 0.00 | 0.00 | 90 | 1010.4 |
| 20260903081948 | 73 | 171 | 0.0 | 0.0 | 0.00 | 0.00 | 0.00 | 89 | 1010.7 |
| 20260903081444 | 73 | 171 | 0.0 | 0.0 | 0.00 | 0.00 | 0.00 | 89 | 1010.6 |
| 20260903080940 | 73 | 171 | 0.0 | 0.0 | 0.00 | 0.00 | 0.00 | 89 | 1010.6 |
| 20260903080436 | 73 | 171 | 0.0 | 0.0 | 0.00 | 0.00 | 0.00 | 89 | 1010.7 |
| 20260903075931 | 73 | 170 | 0.0 | 0.0 | 0.00 | 0.00 | 0.00 | 89 | 1010.7 |
| 20260903075427 | 73 | 171 | 0.0 | 0.0 | 0.00 | 0.00 | 0.00 | 89 | 1010.7 |
| 20260903074921 | 73 | 171 | 0.0 | 0.0 | 0.00 | 0.00 | 0.00 | 89 | 1010.8 |
| 20260903074415 | 73 | 171 | 0.0 | 0.0 | 0.00 | 0.00 | 0.00 | 89 | 1010.6 |
| 20260903073910 | 73 | 171 | 0.0 | 0.0 | 0.00 | 0.00 | 0.00 | 88 | 1010.6 |
| 20260903073405 | 73 | 171 | 0.0 | 0.0 | 0.00 | 0.00 | 0.00 | 88 | 1010.7 |
| 20260903072901 | 73 | 171 | 0.0 | 0.0 | 0.00 | 0.00 | 0.00 | 88 | 1011.0 |
| 20260903072357 | 73 | 171 | 0.0 | 0.0 | 0.00 | 0.00 | 0.00 | 88 | 1010.9 |
| 20260903071854 | 73 | 171 | 0.0 | 0.0 | 0.00 | 0.00 | 0.00 | 87 | 1010.9 |
| 20260903071349 | 74 | 171 | 0.0 | 0.0 | 0.00 | 0.00 | 0.00 | 87 | 1011.1 |
| 20260903070845 | 74 | 171 | 0.0 | 0.0 | 0.00 | 0.00 | 0.00 | 87 | 1011.1 |
| 20260903070339 | 74 | 170 | 0.0 | 0.0 | 0.00 | 0.00 | 0.00 | 87 | 1010.9 |
| 20260903065834 | 74 | 170 | 0.0 | 0.0 | 0.00 | 0.00 | 0.00 | 87 | 1011.0 |
| 20260903065333 | 74 | 171 | 0.0 | 0.0 | 0.00 | 0.00 | 0.00 | 87 | 1011.1 |
| 20260903064832 | 74 | 171 | 0.0 | 0.0 | 0.00 | 0.00 | 0.00 | 86 | 1011.2 |
| 20260903064329 | 74 | 170 | 0.0 | 1.0 | 0.00 | 0.00 | 0.00 | 86 | 1011.2 |
| 20260903063824 | 74 | 171 | 0.0 | 0.0 | 0.00 | 0.00 | 0.00 | 86 | 1011.2 |
| 20260903063318 | 74 | 171 | 0.0 | 0.0 | 0.00 | 0.00 | 0.00 | 86 | 1011.2 |
| 20260903062809 | 75 | 171 | 0.0 | 0.0 | 0.00 | 0.00 | 0.00 | 86 | 1011.1 |
| 20260903062308 | 75 | 171 | 0.0 | 0.0 | 0.00 | 0.00 | 0.00 | 86 | 1011.0 |
| 20260903061805 | 75 | 171 | 0.0 | 0.0 | 0.00 | 0.00 | 0.00 | 85 | 1011.1 |
| 20260903061257 | 75 | 171 | 0.0 | 0.0 | 0.00 | 0.00 | 0.00 | 85 | 1011.2 |
| 20260903060753 | 75 | 171 | 0.0 | 0.0 | 0.00 | 0.00 | 0.00 | 85 | 1011.2 |
| 20260903060247 | 75 | 171 | 0.0 | 0.0 | 0.00 | 0.00 | 0.00 | 84 | 1011.2 |
| 20260903055739 | 75 | 171 | 0.0 | 0.0 | 0.00 | 0.00 | 0.00 | 84 | 1011.2 |
| 20260903055238 | 76 | 171 | 0.0 | 0.0 | 0.00 | 0.00 | 0.00 | 84 | 1011.3 |
| 20260903054732 | 76 | 171 | 0.0 | 0.0 | 0.00 | 0.00 | 0.00 | 84 | 1011.1 |
| 20260903054227 | 76 | 171 | 0.0 | 0.0 | 0.00 | 0.00 | 0.00 | 83 | 1011.3 |
| 20260903053724 | 76 | 171 | 0.0 | 0.0 | 0.00 | 0.00 | 0.00 | 83 | 1011.3 |
| 20260903053219 | 76 | 171 | 0.0 | 0.0 | 0.00 | 0.00 | 0.00 | 82 | 1011.0 |
| 20260903052714 | 77 | 171 | 0.0 | 1.0 | 0.00 | 0.00 | 0.00 | 82 | 1011.1 |
| 20260903052210 | 77 | 170 | 0.0 | 0.0 | 0.00 | 0.00 | 0.00 | 82 | 1011.3 |
| 20260903051705 | 77 | 169 | 0.0 | 1.0 | 0.00 | 0.00 | 0.00 | 82 | 1011.1 |
| 20260903051201 | 77 | 177 | 0.0 | 0.0 | 0.00 | 0.00 | 0.00 | 82 | 1011.0 |
| 20260903050656 | 77 | 169 | 0.0 | 0.0 | 0.00 | 0.00 | 0.00 | 82 | 1011.0 |
| 20260903050155 | 77 | 145 | 2.0 | 2.0 | 0.00 | 0.00 | 0.00 | 82 | 1011.0 |
| 20260903045649 | 77 | 173 | 0.0 | 0.0 | 0.00 | 0.07 | 0.07 | 82 | 1011.1 |
| 20260903045140 | 77 | 172 | 0.0 | 0.0 | 0.00 | 0.07 | 0.07 | 82 | 1011.3 |
| 20260903044636 | 77 | 173 | 0.0 | 0.0 | 0.00 | 0.07 | 0.07 | 82 | 1011.3 |
| 20260903044131 | 77 | 173 | 0.0 | 0.0 | 0.00 | 0.07 | 0.07 | 81 | 1011.3 |
| 20260903043628 | 77 | 177 | 0.0 | 0.0 | 0.00 | 0.07 | 0.07 | 81 | 1011.4 |
| 20260903043126 | 77 | 177 | 0.0 | 0.0 | 0.00 | 0.07 | 0.07 | 81 | 1011.3 |
| 20260903042621 | 77 | 177 | 0.0 | 0.0 | 0.00 | 0.07 | 0.07 | 80 | 1011.4 |
| 20260903042116 | 77 | 177 | 0.0 | 0.0 | 0.00 | 0.07 | 0.07 | 80 | 1011.4 |
| 20260903041613 | 78 | 177 | 0.0 | 0.0 | 0.00 | 0.07 | 0.07 | 79 | 1011.7 |
| 20260903041108 | 78 | 177 | 0.0 | 0.0 | 0.00 | 0.07 | 0.07 | 79 | 1011.3 |
| 20260903040607 | 78 | 177 | 0.0 | 0.0 | 0.00 | 0.07 | 0.07 | 78 | 1011.4 |
| 20260903040104 | 78 | 169 | 0.0 | 0.0 | 0.00 | 0.07 | 0.07 | 78 | 1011.3 |
| 20260903035559 | 78 | 170 | 0.0 | 0.0 | 0.00 | 0.07 | 0.07 | 78 | 1011.4 |
| 20260903035055 | 78 | 170 | 0.0 | 0.0 | 0.00 | 0.07 | 0.07 | 78 | 1011.3 |
| 20260903034549 | 78 | 170 | 0.0 | 0.0 | 0.00 | 0.07 | 0.07 | 78 | 1011.5 |
| 20260903034044 | 78 | 170 | 0.0 | 0.0 | 0.00 | 0.07 | 0.07 | 78 | 1011.3 |
| 20260903033539 | 78 | 170 | 0.0 | 0.0 | 0.00 | 0.07 | 0.07 | 77 | 1011.6 |
| 20260903033034 | 79 | 170 | 0.0 | 0.0 | 0.00 | 0.07 | 0.07 | 77 | 1011.5 |
| 20260903032530 | 79 | 170 | 0.0 | 0.0 | 0.00 | 0.07 | 0.07 | 76 | 1011.5 |
| 20260903032025 | 79 | 171 | 0.0 | 0.0 | 0.00 | 0.07 | 0.07 | 76 | 1011.4 |
| 20260903031525 | 79 | 171 | 0.0 | 0.0 | 0.00 | 0.07 | 0.07 | 76 | 1011.4 |
| 20260903031020 | 79 | 172 | 0.0 | 0.0 | 0.00 | 0.07 | 0.07 | 76 | 1011.5 |
| 20260903030515 | 79 | 172 | 0.0 | 0.0 | 0.00 | 0.07 | 0.07 | 75 | 1011.3 |
| 20260903030012 | 79 | 172 | 0.0 | 0.0 | 0.00 | 0.07 | 0.07 | 75 | 1011.5 |
| 20260903025507 | 80 | 172 | 0.0 | 1.0 | 0.00 | 0.07 | 0.07 | 74 | 1011.6 |
| 20260903025003 | 80 | 172 | 0.0 | 0.0 | 0.00 | 0.07 | 0.07 | 74 | 1011.6 |
| 20260903024501 | 80 | 172 | 0.0 | 1.0 | 0.00 | 0.07 | 0.07 | 74 | 1011.4 |
| 20260903023956 | 80 | 173 | 0.0 | 1.0 | 0.00 | 0.07 | 0.07 | 74 | 1011.4 |
| 20260903023452 | 80 | 173 | 0.0 | 0.0 | 0.00 | 0.07 | 0.07 | 74 | 1011.4 |
| 20260903022947 | 80 | 174 | 0.0 | 0.0 | 0.00 | 0.07 | 0.07 | 73 | 1011.3 |
| 20260903022446 | 79 | 176 | 0.0 | 0.0 | 0.00 | 0.07 | 0.07 | 74 | 1011.3 |
| 20260903021944 | 79 | 191 | 0.0 | 0.0 | 0.00 | 0.07 | 0.07 | 74 | 1011.2 |
| 20260903021440 | 79 | 191 | 0.0 | 0.0 | 0.00 | 0.07 | 0.07 | 74 | 1011.4 |
| 20260903020935 | 79 | 191 | 0.0 | 0.0 | 0.00 | 0.07 | 0.07 | 73 | 1011.2 |
| 20260903020430 | 79 | 191 | 0.0 | 0.0 | 0.00 | 0.07 | 0.07 | 73 | 1011.3 |
| 20260903015925 | 79 | 191 | 0.0 | 0.0 | 0.00 | 0.07 | 0.07 | 74 | 1011.4 |
| 20260903015421 | 79 | 191 | 0.0 | 0.0 | 0.00 | 0.07 | 0.07 | 74 | 1011.3 |
| 20260903014915 | 79 | 191 | 0.0 | 0.0 | 0.00 | 0.07 | 0.07 | 74 | 1011.4 |